#timestamp,LO_Frequency,Hit,StdDev 
1578362415.2,286046996.0,N
1578362435.1,286046996.4,N
1578362436.0,286046996.4,N
1578362455.8,286046995.2,N
1578362475.7,286046995.0,N
1578362495.5,286046997.4,N
1578362515.3,286046996.8,N
1578362535.2,286046998.9,N
1578362555.0,286047000.6,N
1578362555.9,286047000.6,N
1578362575.7,286047002.8,N
1578362595.6,286047000.2,N
1578362615.4,286047001.0,N
1578362635.3,286046998.9,N
1578362655.1,286046995.0,N
1578362656.0,286046995.0,N
1578362675.8,286046997.2,N
1578362695.7,286046995.2,N
1578362715.5,286046993.8,N
1578362735.4,286046995.7,N
1578362755.2,286046997.8,N
1578362775.0,286046995.3,N
1578362775.9,286046995.3,N
1578362795.8,286046997.6,N
1578362815.6,286046999.3,N
1578362835.4,286046998.9,N
1578362855.3,286047000.8,N
1578362875.1,286046998.4,N
1578362895.9,286046999.6,N
1578362915.7,286046999.1,N
1578362935.5,286047001.1,N
1578362955.4,286046998.2,N
1578362975.2,286046999.9,N
1578362995.0,286047002.2,N
1578362996.0,286047002.2,N
1578363015.8,286047002.1,N
1578363035.6,286046999.9,N
1578363055.5,286046998.1,N
1578363075.3,286046997.6,N
1578363095.1,286046996.0,N
1578363115.9,286046996.3,N
1578363135.7,286046994.8,N
1578363155.6,286046993.0,N
1578363175.4,286046993.0,N
1578363195.2,286046994.7,N
1578363215.1,286046992.3,N
1578363216.0,286046992.3,N
1578363235.8,286046992.1,N
1578363255.9,286046996.4,N
1578363275.7,286046995.0,N
1578363295.5,286046996.7,N
1578363315.4,286046996.5,N
1578363335.2,286046998.3,N
1578363355.0,286047000.7,N
1578363356.0,286047000.7,N
1578363375.8,286047000.9,N
1578363395.6,286046999.8,N
1578363415.5,286047000.3,N
1578363435.3,286047001.9,N
1578363455.3,286047001.8,N
1578363475.1,286047001.5,N
1578363495.9,286047005.9,N
1578363515.7,286047004.0,N
1578363535.5,286047001.3,N
1578363555.4,286047001.4,N
1578363575.2,286047001.7,N
1578363595.1,286047001.8,N
1578363596.0,286047001.8,N
1578363615.8,286047003.1,N
1578363635.6,286047003.3,N
1578363655.5,286047003.0,N
1578363675.3,286047003.2,N
1578363695.1,286047005.6,N
1578363715.9,286047004.8,N
1578363735.7,286047004.6,N
1578363755.6,286047005.5,N
1578363775.4,286047005.0,N
1578363795.2,286047005.4,N
1578363815.1,286047005.1,N
1578363816.0,286047005.1,N
1578363835.8,286047007.2,N
1578363855.7,286047006.8,N
1578363875.5,286047007.2,Y
1578363895.3,286047005.3,P
1578363915.2,286047006.6,P
1578363935.0,286047005.5,P
1578363935.9,286047005.5,Y
1578363955.8,286046999.5,P
1578363975.6,286046997.2,N
1578363995.4,286046997.3,N
1578364015.3,286046997.3,N
1578364035.1,286046997.0,N
1578364055.9,286046999.2,N
1578364075.7,286046999.6,N
1578364095.5,286046999.0,N
1578364115.4,286046999.4,N
1578364135.2,286046998.3,N
1578364155.1,286046999.1,N
1578364156.0,286046999.1,N
1578364175.8,286047001.0,N
1578364195.6,286047002.2,N
1578364215.5,286046998.3,N
1578364235.3,286046997.7,N
1578364255.2,286046997.8,N
1578364275.9,286046996.7,N
1578364295.7,286046999.5,N
1578364315.6,286046998.6,N
1578364335.4,286047001.1,N
1578364355.2,286047000.8,N
1578364375.1,286047001.1,N
1578364376.0,286047001.1,N
1578364395.8,286046999.3,N
1578364415.7,286046996.9,N
1578364435.5,286046998.5,N
1578364455.3,286047001.2,N
1578364475.2,286047000.1,N
1578364495.0,286047000.1,N
1578364495.9,286047000.1,N
1578364515.8,286046999.7,N
1578364535.6,286047002.1,N
1578364555.4,286047003.1,N
1578364575.3,286047001.6,N
1578364595.1,286047001.6,N
1578364615.8,286047001.6,N
1578364635.7,286047002.1,N
1578364655.5,286047001.3,N
1578364675.4,286047002.0,N
1578364695.2,286047003.9,N
1578364715.0,286047002.1,N
1578364715.9,286047002.1,N
1578364735.8,286047002.3,N
1578364755.6,286047001.5,N
1578364775.4,286047004.0,N
1578364795.3,286047001.4,N
1578364815.1,286047003.6,N
1578364835.9,286047001.8,N
1578364855.7,286047004.4,N
1578364875.5,286047004.3,N
1578364895.4,286047004.2,N
1578364915.2,286047003.0,N
1578364935.0,286047004.9,N
1578364935.9,286047004.9,N
1578364955.8,286047006.0,Y
1578364975.6,286047002.6,P
1578364995.5,286047002.8,P
1578365015.3,286047000.4,N
1578365035.1,286047000.4,N
1578365055.9,286046996.6,Y
1578365075.7,286046999.0,P
1578365095.6,286046996.7,N
1578365115.4,286047001.1,N
1578365135.2,286047000.7,N
1578365155.1,286047001.0,N
1578365156.0,286047001.0,N
1578365175.8,286047000.5,N
1578365195.6,286047001.1,N
1578365215.5,286047002.2,N
1578365235.3,286046999.9,N
1578365255.2,286047000.6,N
1578365275.9,286046998.6,N
1578365295.7,286046998.1,N
1578365315.6,286047002.8,N
1578365335.4,286047001.5,N
1578365355.2,286047002.2,N
1578365375.1,286047000.9,N
1578365376.0,286047000.9,N
1578365395.8,286047000.1,N
1578365415.7,286047001.1,N
1578365435.5,286047002.4,N
1578365455.3,286047002.8,N
1578365475.2,286047004.4,N
1578365495.0,286047004.3,N
1578365495.9,286047004.3,N
1578365515.7,286047001.7,N
1578365535.6,286047003.2,N
1578365555.4,286047005.9,Y
1578365575.3,286047004.1,P
1578365595.1,286047003.7,N
1578365615.8,286046999.8,N
1578365635.7,286047001.9,N
1578365655.5,286047003.0,N
1578365675.4,286047006.0,Y
1578365695.2,286047001.4,P
1578365715.0,286047002.6,P
1578365715.9,286047002.6,P
1578365735.8,286047002.6,Y
1578365755.6,286047001.2,P
1578365775.5,286047000.0,N
1578365795.3,286047002.7,N
1578365815.1,286046998.2,N
1578365835.9,286046997.0,N
1578365855.7,286046999.5,N
1578365875.5,286046998.9,N
1578365895.4,286046999.5,N
1578365915.2,286046998.9,N
1578365935.1,286046998.7,N
1578365936.0,286046998.7,N
1578365955.8,286046998.6,N
1578365975.6,286046998.4,N
1578365995.5,286046999.0,N
